Location: Rumah Sambob
(2.9167°N, 113.9167°E)
Time: 12:28:56
(UTC+00:00)

Spelda - Pass Details

Date: 06 June 2020
Orbit: 354 x 22478 km, 5.3° (Epoch: 05 July)

Event Time Altitude Azimuth Distance (km) Brightness Sun altitude
Rises 12:29:02 0° 274° (W) 12,316 10.2 -27.5°
Reaches altitude 10° 12:43:47 10° 273° (W) 7,444 8.8 -30.7°
Enters shadow 12:58:59 64° 240° (WSW) 1,239 4.0 -34.0°
